Location: Linton
(52.0940°N, 0.2850°E)
Time: 17:37:57
(UTC+00:00)

ISS - Pass Details

Date: 13 November 2017
Orbit: 401 x 407 km, 51.6° (Epoch: 18 November)

Event Time Altitude Azimuth Distance (km) Brightness Sun altitude
Exits shadow 05:35:32 30° 243° (WSW) 757 -2.9 -15.3°
Maximum altitude 05:36:26 37° 206° (SSW) 649 -3.0 -15.1°
Drops below altitude 10° 05:39:28 10° 137° (SE) 1,452 -0.2 -14.7°
Sets 05:41:37 0° 129° (SE) 2,308 1.2 -14.4°
